Overview Statistics Trail Chart Weather Telemetry Raw packets
 

This is the latest recevied weather packets stored in our database for station/object KY0TEQ-13. If no packets are shown the sender has not sent any weather packets the latest 10 day(s).

<< 23 24 25 26 27 28 29 >>
Time Temp. Humidity Pressure Rain* Wind** Luminosity Snow
1788530887 15.56° C 60% 1309.3 hPa 0 mm - 49 W/m² -
1788530582 16.11° C 60% 1309.3 hPa 0 mm - 61 W/m² -
1788530281 15.56° C 59% 1309.4 hPa 0 mm - 86 W/m² -
1788529976 15.56° C 60% 1309.3 hPa 0 mm - 39 W/m² -
1788529672 15° C 62% 1309.3 hPa 0 mm - 73 W/m² -
1788529371 14.44° C 62% 1309.3 hPa 0 mm - 53 W/m² -
1788529067 14.44° C 62% 1309.1 hPa 0 mm - 40 W/m² -
1788528762 14.44° C 62% 1308.8 hPa 0 mm - 34 W/m² -
1788528461 13.89° C 63% 1308.8 hPa 0 mm - 25 W/m² -
1788528157 13.89° C 62% 1308.8 hPa 0 mm - 19 W/m² -
1788527856 13.89° C 63% 1308.6 hPa 0 mm - 15 W/m² -
1788527552 12.78° C 65% 1308.6 hPa 0 mm - 15 W/m² -
1788527246 12.22° C 65% 1308.5 hPa 0 mm - 13 W/m² -
1788526945 12.22° C 67% 1308.4 hPa 0 mm - 11 W/m² -
1788526643 11.67° C 68% 1308.4 hPa 0 mm - 9 W/m² -
1788526362 12.78° C 66% 1308.4 hPa 0 mm - 6 W/m² -
1788526038 12.22° C 67% 1308.3 hPa 0 mm - 4 W/m² -
1788525734 12.78° C 67% 1308.2 hPa 0 mm - 2 W/m² -
1788525428 12.78° C 67% 1308 hPa 0 mm - 1 W/m² -
1788525124 12.78° C 68% 1308.3 hPa 0 mm - 0 W/m² -
1788524819 12.22° C 68% 1308 hPa 0 mm - 0 W/m² -
1788524514 12.22° C 67% 1307.9 hPa 0 mm - 0 W/m² -
1788524209 12.78° C 66% 1308 hPa 0 mm - 0 W/m² -
1788523904 12.78° C 65% 1307.8 hPa 0 mm - 0 W/m² -
1788523607 12.78° C 65% 1307.9 hPa 0 mm - 0 W/m² -

* Rain latest hour (hover to see other rain measurements)
** Current wind speed in m/s (hover to see current wind gust speed)